Wind_Speed
8 7 6 5 3 3 3 2 2 2 3 3 5 5 5 4 5 6 7 7 7 7 8 8 9 8 8 8 9 9 9 9 9 9 9 10 10 10 10 10 10 10 11 11 12 12 12 13 13
10 8 7 6 5 4 3 3 3 2 3 3 4 4 4 5 5 6 7 7 7 7 8 8 8 8 9 9 9 9 9 10 10 10 10 10 10 11 11 11 11 11 11 12 12 12 12 13 13
11 10 9 8 7 6 5 5 4 3 3 4 4 3 4 5 5 6 6 7 7 8 8 8 9 9 9 9 10 9 10 10 10 10 10 11 11 11 11 11 11 12 12 12 13 13 13 13 14
13 12 11 10 8 7 7 7 5 4 4 5 5 4 5 5 6 6 6 7 7 8 9 9 9 9 10 10 10 10 11 11 11 11 11 11 11 11 11 11 12 13 13 13 13 13 14 14 15
15 13 12 11 10 9 8 7 6 5 4 5 5 5 5 6 6 7 7 8 8 9 9 9 9 9 9 10 10 11 11 11 11 11 11 11 12 12 12 12 12 13 13 13 13 13 14 14 15
16 15 14 13 11 10 9 7 6 6 6 6 6 4 5 6 6 7 8 8 9 9 9 9 9 9 10 10 10 11 11 11 11 11 12 12 12 12 12 13 14 14 14 14 14 14 14 14 15
19 18 16 15 13 11 10 8 8 7 7 7 6 5 6 6 6 7 8 9 10 10 9 9 9 10 10 10 10 11 11 11 12 12 12 12 12 12 13 14 15 15 15 14 14 14 14 14 15
21 19 18 17 15 13 11 10 8 7 7 7 7 6 6 6 6 7 9 10 10 10 10 9 9 10 11 11 11 11 12 12 12 12 13 13 13 14 14 15 16 16 16 15 15 15 15 15 15
23 21 20 18 16 14 12 11 9 8 8 8 8 8 8 7 7 8 9 10 10 10 10 10 9 10 10 11 11 12 13 13 12 13 14 14 14 15 16 17 17 17 16 16 16 16 16 16 16
23 22 21 19 17 14 12 11 10 9 8 8 8 8 8 8 8 8 9 9 9 10 10 10 10 11 11 11 12 12 13 13 13 13 14 15 15 16 17 17 17 17 17 17 16 17 17 17 17
25 23 23 19 16 14 12 11 11 9 9 9 8 7 8 9 8 8 9 9 9 10 10 10 10 11 11 12 13 13 14 13 14 14 14 15 16 17 17 18 18 18 18 18 18 18 17 17 18
26 24 22 19 17 14 13 12 11 10 8 7 8 8 8 8 8 8 9 9 9 9 9 9 10 10 11 12 13 14 14 14 14 15 15 16 17 18 18 18 18 18 19 18 18 18 18 18 18
26 24 22 18 16 15 12 11 10 9 9 9 9 8 9 8 8 8 8 9 9 9 9 10 10 11 12 13 13 14 14 14 14 15 16 17 18 18 19 19 19 19 19 19 18 18 18 18 17
25 23 21 19 17 16 13 12 10 10 9 8 8 7 7 6 7 7 8 8 8 8 9 10 10 11 12 13 14 14 14 14 15 16 16 17 18 19 19 19 20 20 19 19 19 19 18 17 17
24 22 20 19 18 15 13 11 10 9 8 7 7 6 5 5 6 6 7 8 8 8 9 10 10 11 13 13 13 14 14 14 15 16 17 17 18 19 19 19 20 19 19 19 18 18 17 16 16
24 22 20 18 17 14 12 10 10 8 7 6 6 5 5 5 5 6 7 7 8 9 9 10 11 12 12 13 13 14 14 15 16 17 17 17 18 19 19 20 20 19 18 18 18 17 16 15 14
23 21 20 18 15 13 11 10 8 6 5 5 5 4 4 5 5 6 6 7 8 9 9 10 11 11 12 13 13 14 15 16 16 17 17 17 18 19 19 20 19 19 18 18 17 16 15 14 13
21 20 18 16 14 12 11 9 7 5 4 4 4 4 4 4 5 5 6 7 8 8 9 10 11 11 12 13 14 14 15 15 16 17 17 17 18 19 20 20 19 19 18 18 17 16 14 13 12
19 18 16 14 12 11 10 8 6 6 5 4 4 4 4 4 4 6 6 7 7 8 9 10 11 12 12 13 14 14 15 15 16 16 17 17 18 19 19 19 19 19 18 17 16 15 14 13 12
20 18 15 14 12 10 9 7 6 5 4 3 3 3 3 3 4 6 7 6 7 8 8 9 11 12 12 13 13 14 15 15 16 16 17 17 18 18 19 19 18 18 18 17 16 15 14 13 11
20 19 17 14 12 11 9 7 5 4 4 3 2 2 3 3 4 5 6 7 8 8 9 9 11 11 12 13 13 14 14 15 16 16 17 17 18 18 18 19 18 18 18 17 16 14 13 12 10
19 19 17 14 12 9 7 6 4 4 3 2 2 2 2 3 4 5 5 6 7 8 8 9 10 11 12 12 13 14 14 15 16 16 16 17 17 18 18 19 18 18 17 16 15 14 13 12 10
19 18 16 14 12 8 6 5 5 5 3 2 2 2 3 3 3 4 5 6 7 8 8 9 10 11 11 12 13 13 14 15 16 16 16 16 17 17 18 18 18 17 17 16 16 14 13 12 10
18 18 16 16 14 12 8 7 5 4 3 3 3 3 3 3 3 4 4 5 6 7 8 9 10 11 11 12 12 13 14 15 15 16 17 17 17 17 17 18 18 17 17 16 16 15 13 12 10
19 19 17 15 13 12 10 8 7 6 6 5 4 3 3 3 3 3 3 4 5 7 8 9 10 11 12 12 13 13 14 14 15 16 17 17 17 17 17 17 17 17 17 16 15 15 13 12 10
20 18 16 14 12 11 9 10 7 7 7 7 5 4 3 3 3 3 4 5 6 7 8 9 10 11 11 12 13 14 14 14 15 16 17 18 18 18 17 17 17 17 16 16 15 15 14 12 10
19 16 15 13 10 9 10 11 8 8 9 8 5 4 3 3 3 3 4 5 6 7 8 9 10 11 12 12 13 14 14 14 15 16 17 18 18 18 18 18 17 17 17 16 16 15 15 13 11
16 14 11 13 12 10 9 11 9 9 9 7 5 4 3 3 2 3 4 5 6 7 7 9 10 11 11 12 13 14 15 15 16 16 17 17 18 18 19 18 18 17 17 17 16 15 14 13 11
14 13 12 12 10 9 10 12 9 7 8 7 5 4 4 3 3 3 4 5 5 7 8 9 10 11 11 12 13 14 15 15 16 17 18 18 18 18 19 19 19 18 18 18 16 15 14 13 12
14 15 14 13 13 13 12 11 10 9 8 7 5 5 4 4 4 4 4 5 6 7 8 9 10 11 12 13 14 14 15 15 16 17 18 19 19 19 19 19 19 19 19 18 18 16 15 14 13
Wind_Direction
246 249 242 242 259 267 280 292 298 274 260 243 234 231 239 251 256 263 273 283 289 296 301 304 305 307 308 312 314 313 317 319 319 320 319 318 316 315 314 310 306 301 298 294 288 282 273 268 263
238 241 240 238 242 256 268 277 277 280 280 256 241 237 256 264 265 268 277 285 289 297 302 305 307 307 309 313 315 315 315 317 317 317 317 316 315 314 313 312 308 304 302 297 291 285 281 273 266
234 236 237 233 235 242 249 264 264 259 259 252 252 255 267 272 273 275 279 287 292 300 302 304 305 307 309 312 313 314 315 316 317 317 317 317 316 315 313 311 309 307 305 301 296 290 284 279 272
231 231 234 234 234 239 245 257 261 252 249 254 256 267 272 275 280 282 284 293 300 303 303 306 307 307 309 313 313 313 316 317 316 317 316 317 317 316 313 312 310 308 306 303 299 295 288 281 277
229 228 228 231 234 240 241 249 252 253 256 264 265 276 281 281 282 285 292 299 304 306 306 309 308 310 313 314 314 315 317 318 317 317 316 318 318 317 315 314 313 310 307 304 300 299 293 285 278
226 223 224 229 233 238 240 243 245 252 261 271 275 285 288 288 285 289 295 301 306 308 308 311 311 314 317 316 315 317 319 320 320 318 317 318 319 318 317 315 314 311 307 303 300 297 293 287 281
225 224 227 230 233 233 233 239 243 248 258 269 281 292 294 288 288 294 299 305 308 307 306 310 312 315 318 319 319 321 322 321 321 320 319 319 319 317 316 314 313 311 307 303 300 297 293 288 283
223 223 226 229 232 229 227 232 240 247 254 267 282 287 286 291 289 290 294 300 304 305 305 306 309 315 320 323 322 322 322 321 321 322 321 320 319 317 316 315 313 311 306 303 300 298 294 289 284
224 222 224 228 231 227 226 228 234 241 254 265 280 282 290 294 292 296 300 301 304 309 307 306 310 315 321 323 323 324 324 323 323 324 324 322 320 319 318 316 313 311 307 303 300 298 294 289 285
223 220 222 226 225 220 221 226 231 240 254 263 272 282 290 292 291 299 306 308 307 313 310 305 313 320 324 324 325 326 325 324 324 324 323 322 321 321 319 317 315 312 309 304 300 298 294 289 285
219 219 220 221 221 219 222 225 230 239 253 260 271 282 287 292 297 305 310 312 312 314 314 311 315 323 327 328 328 327 326 326 325 324 324 323 322 321 320 319 316 313 310 305 301 299 295 290 285
216 215 216 215 215 217 222 226 230 238 248 262 272 283 288 292 295 303 309 313 315 317 321 321 323 327 329 328 327 327 326 326 326 327 325 324 323 322 321 319 317 315 311 306 301 300 297 292 286
213 214 216 214 215 217 221 225 232 240 253 265 276 283 285 285 296 303 312 319 322 322 325 329 329 330 330 329 328 327 326 326 327 328 326 326 326 324 322 321 319 317 314 309 304 300 299 295 289
210 211 213 211 211 216 220 225 234 244 253 261 272 283 285 291 303 311 319 322 324 327 328 330 334 332 332 332 331 329 328 328 328 327 327 328 328 327 326 324 323 320 317 314 309 304 301 295 289
204 205 206 208 210 213 218 227 236 245 257 266 274 279 287 297 303 315 326 327 330 331 332 334 336 335 334 335 335 333 332 331 331 330 330 330 330 331 330 328 326 323 321 319 315 310 305 298 290
200 203 204 206 209 212 218 228 232 244 262 273 275 283 294 306 311 322 329 329 329 331 334 335 337 337 336 337 337 337 337 336 335 335 334 333 334 334 333 332 330 327 325 324 321 317 311 305 295
196 199 201 204 206 212 219 229 232 240 262 271 274 283 299 314 316 324 327 329 329 332 333 335 340 339 339 340 340 339 340 340 339 338 337 337 337 337 336 336 334 332 330 329 327 324 319 312 303
190 193 194 199 200 208 218 230 240 238 256 268 271 282 304 314 318 323 326 327 331 334 333 336 339 339 339 340 341 341 340 341 341 341 340 339 340 341 340 339 338 336 335 334 332 329 325 318 309
179 185 184 193 196 204 213 222 224 229 242 248 249 276 310 317 319 323 325 328 332 335 334 337 339 341 342 341 342 343 343 343 343 343 342 341 341 342 342 341 341 341 340 339 337 334 329 325 319
173 175 182 189 192 196 202 215 217 216 232 240 250 277 303 313 326 327 325 332 335 336 337 341 344 344 344 344 344 345 347 347 345 345 345 344 343 343 344 344 344 345 344 343 341 338 335 331 327
173 177 179 181 184 186 187 198 208 214 232 214 224 268 307 324 329 327 332 336 339 341 344 345 346 346 345 345 346 348 348 348 347 346 345 345 346 347 348 348 348 348 348 348 347 345 342 338 333
172 175 175 175 176 173 186 201 198 203 218 205 236 261 296 317 327 334 335 333 339 346 348 347 347 348 347 347 349 350 349 350 350 348 346 347 348 349 351 352 351 351 351 352 351 349 351 347 340
168 170 165 161 164 169 186 206 218 231 221 241 269 279 284 303 315 325 327 331 339 345 348 349 350 349 349 348 349 351 351 351 351 350 350 350 351 352 353 353 354 354 354 355 354 351 351 353 351
159 161 156 156 166 171 179 208 231 233 257 275 277 288 298 322 328 327 332 337 344 349 351 352 352 352 350 349 350 351 351 352 353 353 353 353 353 354 354 354 356 357 357 357 358 357 354 355 356
162 158 156 164 174 172 181 217 229 253 268 272 276 292 308 323 334 340 347 352 355 356 355 354 354 353 353 352 351 350 350 352 354 354 354 354 355 355 355 355 356 358 359 360 360 0 0 0 1
164 162 166 175 180 180 194 229 240 255 261 264 275 292 306 322 334 349 359 359 358 358 357 356 354 353 352 352 351 350 350 351 353 354 355 356 356 355 355 355 355 356 358 -0 0 360 360 0 360
170 180 178 170 174 188 211 234 247 254 256 259 269 281 299 318 334 351 357 356 354 354 354 353 352 351 351 351 352 351 350 350 351 352 354 356 357 356 356 355 353 353 355 357 358 358 358 358 356
177 176 168 159 167 184 227 256 255 248 254 260 266 275 285 301 317 335 345 349 350 349 349 350 350 351 352 352 352 352 351 351 352 352 352 353 355 355 355 354 352 352 352 353 354 355 356 357 354
185 187 181 175 173 193 227 250 257 255 259 264 267 269 275 292 306 315 325 334 340 342 344 346 347 348 350 350 350 351 351 350 351 351 351 351 351 353 353 353 351 349 348 349 348 349 350 348 347
191 190 186 182 190 204 227 246 262 263 261 263 261 263 271 282 288 298 311 322 329 333 337 340 342 343 345 346 347 348 349 349 349 349 348 348 348 348 349 349 349 347 345 345 345 343 343 342 340
Height
5867 5868 5869 5871 5872 5872 5871 5870 5870 5870 5871 5871 5872 5872 5874 5875 5876 5879 5877 5876 5877 5876 5876 5876 5875 5875 5874 5874 5873 5872 5872 5871 5870 5869 5868 5867 5866 5866 5865 5864 5863 5862 5862 5862 5861 5861 5861 5861 5861
5866 5867 5869 5870 5870 5871 5871 5870 5870 5871 5871 5871 5872 5872 5873 5874 5875 5875 5875 5876 5876 5876 5875 5875 5874 5874 5873 5872 5872 5871 5871 5870 5869 5868 5867 5866 5865 5864 5863 5862 5862 5861 5860 5860 5859 5859 5859 5859 5859
5865 5866 5868 5869 5869 5870 5870 5869 5870 5870 5871 5871 5872 5873 5873 5874 5874 5874 5874 5875 5875 5875 5874 5874 5873 5873 5872 5871 5871 5870 5869 5869 5868 5867 5866 5865 5864 5863 5862 5861 5860 5859 5858 5858 5857 5856 5856 5856 5856
5863 5865 5867 5868 5868 5868 5869 5869 5870 5870 5871 5871 5872 5873 5872 5873 5873 5874 5874 5874 5874 5874 5873 5873 5872 5872 5871 5870 5870 5869 5868 5867 5866 5865 5864 5863 5862 5861 5860 5859 5858 5857 5856 5855 5855 5854 5853 5853 5853
5861 5863 5865 5866 5866 5867 5868 5869 5869 5870 5870 5871 5872 5872 5872 5872 5873 5873 5873 5873 5873 5873 5872 5872 5871 5870 5870 5869 5868 5867 5866 5866 5865 5864 5863 5862 5860 5859 5858 5857 5856 5855 5854 5853 5852 5851 5851 5850 5850
5859 5861 5863 5864 5864 5865 5867 5868 5868 5869 5870 5870 5871 5872 5871 5872 5872 5872 5872 5872 5872 5872 5871 5870 5870 5869 5869 5868 5867 5866 5865 5864 5863 5862 5861 5860 5859 5858 5856 5855 5854 5853 5852 5850 5849 5849 5848 5847 5847
5856 5859 5860 5862 5862 5864 5865 5866 5867 5868 5869 5870 5870 5871 5870 5871 5871 5871 5871 5871 5871 5871 5870 5870 5869 5868 5868 5867 5866 5865 5864 5863 5862 5861 5859 5858 5857 5856 5854 5853 5852 5850 5849 5848 5847 5846 5845 5844 5844
5852 5856 5857 5859 5860 5862 5864 5865 5866 5867 5868 5869 5869 5870 5869 5870 5870 5870 5870 5870 5870 5869 5869 5869 5868 5867 5866 5865 5864 5863 5862 5861 5860 5859 5858 5856 5855 5854 5852 5851 5849 5848 5846 5845 5843 5842 5842 5841 5840
5849 5854 5855 5856 5858 5860 5862 5863 5865 5866 5867 5868 5868 5869 5869 5869 5869 5869 5869 5869 5868 5868 5868 5867 5867 5866 5865 5864 5863 5862 5861 5860 5858 5857 5856 5854 5853 5851 5850 5848 5846 5845 5843 5841 5840 5839 5838 5837 5837
5846 5849 5852 5854 5856 5858 5860 5862 5864 5865 5866 5867 5867 5868 5868 5868 5868 5868 5868 5868 5867 5867 5866 5865 5865 5864 5864 5863 5862 5861 5860 5858 5857 5855 5854 5852 5851 5849 5847 5845 5843 5841 5840 5838 5836 5835 5834 5833 5833
5842 5846 5848 5851 5854 5857 5859 5861 5863 5864 5865 5866 5866 5867 5867 5867 5867 5867 5867 5866 5866 5865 5865 5864 5864 5863 5862 5861 5860 5859 5858 5856 5855 5853 5852 5850 5848 5846 5844 5842 5840 5838 5836 5834 5833 5831 5830 5829 5829
5838 5842 5845 5847 5851 5855 5858 5860 5862 5863 5864 5864 5865 5865 5865 5866 5866 5866 5865 5865 5865 5864 5863 5863 5862 5862 5861 5860 5859 5857 5856 5855 5853 5851 5850 5848 5846 5844 5842 5840 5837 5835 5833 5831 5829 5827 5826 5825 5824
5835 5839 5843 5846 5850 5853 5856 5858 5860 5862 5863 5863 5864 5864 5864 5865 5865 5864 5864 5864 5863 5863 5862 5862 5861 5860 5859 5858 5857 5856 5854 5853 5851 5849 5848 5846 5844 5841 5839 5837 5834 5832 5829 5827 5825 5823 5821 5820 5819
5832 5837 5841 5845 5849 5852 5855 5857 5859 5860 5861 5862 5863 5863 5863 5863 5863 5863 5863 5863 5862 5862 5861 5861 5860 5859 5858 5857 5855 5854 5852 5851 5849 5848 5846 5844 5841 5839 5836 5834 5831 5828 5825 5823 5821 5818 5817 5815 5814
5830 5835 5840 5844 5848 5851 5854 5856 5858 5859 5860 5861 5862 5862 5862 5862 5862 5862 5862 5861 5861 5860 5860 5859 5858 5857 5857 5855 5854 5852 5851 5849 5848 5846 5844 5841 5839 5836 5834 5831 5828 5825 5822 5819 5817 5814 5812 5811 5810
5828 5834 5838 5843 5846 5849 5854 5855 5856 5858 5859 5860 5861 5861 5861 5861 5861 5861 5861 5860 5860 5859 5859 5858 5857 5856 5855 5854 5852 5851 5849 5847 5846 5844 5841 5839 5837 5834 5831 5828 5825 5822 5819 5816 5813 5811 5809 5807 5806
5827 5832 5837 5842 5845 5848 5852 5853 5855 5856 5858 5859 5859 5860 5860 5860 5860 5860 5860 5860 5859 5858 5857 5857 5856 5855 5854 5852 5851 5849 5847 5846 5844 5842 5840 5837 5835 5832 5829 5826 5823 5820 5817 5814 5811 5808 5806 5804 5803
5827 5832 5837 5841 5844 5848 5851 5852 5854 5855 5857 5858 5859 5859 5859 5859 5860 5859 5859 5859 5858 5857 5856 5856 5855 5854 5852 5851 5850 5848 5846 5844 5842 5840 5838 5836 5833 5831 5828 5825 5821 5818 5815 5812 5809 5806 5803 5801 5800
5826 5831 5836 5840 5844 5847 5849 5851 5853 5855 5856 5857 5858 5858 5858 5859 5859 5858 5858 5857 5857 5856 5855 5855 5854 5853 5851 5850 5848 5847 5845 5843 5841 5839 5837 5834 5832 5829 5826 5823 5820 5817 5813 5810 5807 5804 5801 5799 5798
5826 5831 5836 5840 5844 5846 5848 5850 5852 5854 5855 5856 5857 5857 5857 5858 5857 5857 5857 5856 5856 5855 5854 5854 5852 5851 5850 5848 5847 5846 5844 5842 5840 5838 5836 5833 5831 5828 5825 5822 5819 5815 5812 5809 5806 5803 5800 5798 5796
5826 5831 5836 5840 5843 5846 5848 5850 5852 5853 5854 5855 5856 5856 5856 5857 5857 5856 5856 5855 5855 5854 5853 5852 5851 5850 5849 5847 5846 5844 5843 5841 5839 5837 5835 5832 5830 5827 5824 5821 5818 5814 5811 5808 5805 5802 5799 5797 5796
5827 5832 5836 5840 5843 5846 5849 5850 5851 5853 5854 5855 5856 5856 5856 5856 5856 5856 5855 5855 5854 5853 5852 5851 5850 5849 5848 5846 5845 5843 5842 5840 5838 5836 5834 5831 5829 5826 5823 5820 5817 5814 5811 5808 5805 5802 5799 5797 5795
5827 5832 5836 5840 5844 5847 5848 5850 5852 5852 5854 5855 5855 5855 5856 5856 5855 5855 5854 5854 5853 5853 5851 5850 5849 5848 5847 5845 5844 5843 5841 5839 5837 5835 5833 5830 5828 5825 5822 5820 5816 5813 5810 5807 5804 5802 5799 5797 5795
5829 5834 5838 5841 5844 5847 5849 5850 5851 5851 5853 5854 5854 5854 5854 5854 5854 5854 5854 5853 5853 5852 5851 5849 5848 5847 5846 5845 5843 5842 5840 5839 5837 5835 5832 5830 5827 5825 5822 5819 5816 5813 5810 5807 5805 5802 5800 5797 5796
5831 5835 5838 5841 5843 5846 5849 5850 5851 5851 5852 5853 5853 5854 5854 5853 5853 5853 5853 5852 5852 5851 5850 5849 5848 5847 5845 5844 5843 5841 5840 5838 5836 5834 5832 5829 5827 5824 5822 5819 5816 5814 5811 5808 5805 5803 5800 5798 5797
5832 5835 5839 5841 5844 5846 5849 5849 5851 5851 5852 5852 5852 5853 5853 5853 5853 5853 5852 5852 5851 5850 5849 5848 5847 5846 5845 5843 5842 5841 5839 5837 5835 5833 5831 5829 5826 5824 5821 5819 5816 5814 5811 5808 5806 5803 5801 5799 5797
5832 5834 5837 5840 5843 5846 5848 5848 5850 5850 5851 5851 5852 5852 5852 5852 5852 5852 5851 5851 5850 5850 5849 5848 5847 5846 5844 5843 5841 5840 5838 5836 5835 5833 5830 5828 5826 5823 5821 5818 5816 5814 5811 5809 5806 5804 5802 5800 5798
5832 5833 5836 5840 5843 5845 5847 5847 5849 5850 5850 5850 5851 5851 5851 5851 5851 5851 5850 5850 5850 5849 5848 5847 5846 5845 5844 5842 5841 5839 5837 5836 5834 5832 5830 5828 5825 5823 5820 5818 5816 5813 5811 5809 5806 5804 5802 5800 5799
5833 5835 5837 5840 5843 5846 5846 5848 5847 5848 5848 5849 5849 5850 5850 5850 5850 5850 5849 5849 5849 5848 5847 5847 5846 5844 5843 5841 5840 5838 5837 5835 5833 5831 5829 5827 5825 5822 5820 5818 5815 5813 5811 5809 5806 5804 5802 5801 5799
5832 5834 5837 5840 5842 5844 5844 5848 5845 5846 5847 5847 5848 5848 5848 5849 5849 5849 5848 5848 5847 5847 5846 5845 5845 5843 5842 5841 5839 5837 5836 5834 5832 5830 5828 5826 5824 5821 5819 5817 5814 5812 5810 5808 5806 5804 5802 5800 5799